GAOFEN 3

Satellite information

Favourite Embed

Satellite Type and Status

PAYLOADIN ORBIT

Key statistics

Satellite GAOFEN 3 at a glance.

Uptime

3414

Days in orbit

Revolutions

≈ 14.4

Per day

Orbit

SSO

Sun Synchronous Orbit

Inclination

98.4

Latest

Satellite identification and parameters

Extended collection of information and parameters for GAOFEN 3.

Object identification

Identified? True

Debris? False

Object name: GAOFEN 3

International designator: 2016-049A

Object number (NORAD): 41727

Object ID (CCSDS): 41727

Country: PEOPLES REPUBLIC OF CHINA (PRC)

Current information (Y/N): Y

RCS size: LARGE

Orbital parameters

Period: 99.847 minutes

Inclination: 98.4043 deg

SMA: 7129.331 km

Apoapsis: 752.227 km

Periapsis: 750.166 km

RAAN: 351.9112 deg

Eccentricy: 0.00014455

Argument of periapsis: 62.0255 deg

Mean anomaly: 298.1081 deg

Mean motion: 14.42213478 rev/day

Mean motion (dot): 0.00000157 rev/day2

B* drag term: 0.000060767365 1/REarth

Two-line elements (TLE)

Creation date: Dec. 12, 2025, 10:14 a.m.

Reference frame: TEME

Reference center: EARTH

Epoch: Dec. 12, 2025, 7:38 a.m. UTC

TLE line 0: 0 GAOFEN 3

TLE line 1: 1 41727U 16049A 25346.31868775 .00000157 00000-0 60767-4 0 9999

TLE line 2: 2 41727 98.4043 351.9112 0001445 62.0255 298.1081 14.42213478491714

Live tracking on map

Real-time ground track for satellite GAOFEN 3.

In-orbit conjunctions

There are no conjunctions computed for GAOFEN 3, at the moment. Check back to stay up to date, as we update our databases every day.

Go to all conjunctions

Associated space launch

Gaofen 3 is the first medium-sized and long life (8 years) civil satellite of China. The satellite is a C-band Synthetic Aperture Radar capable of up to 1m ground resolution.

GAOFEN 3 was lifted into orbit during the mission ‘Long March 4C | Gaofen 3’, on board a Long March 4C space rocket.

The launch took place on Aug. 9, 2016, 10:55 p.m. from Launch Complex 9.

For more information about the launch, click the button.

Launch to space Long March 4C | Gaofen 3
Long March 4C | Gaofen 3

Agency: N/A

Status: Launch Successful

Launch date: Aug. 9, 2016, 10:55 p.m. UTC

Rocket: Long March 4C

Launch pad: Launch Complex 9

Location: Taiyuan Satellite Launch Center, People's Republic of China

...

Latest news about this satellite

There are no fresh news available about this satellite. Check back as we update our databases every day.


Newsletter sign-up

Weekly statistics, charts and insights to help you stay on top of the space industry.